Location: Chuathbaluk
(61.5726°N, 159.2454°W)
Time: 05:30:29
(UTC+00:00)

A-11 Canister half - Visible Passes

Search period start: 27 November 2020 00:00
Search period end: 07 December 2020 00:00
Orbit: 1525 x 1684 km, 47.3° (Epoch: 26 November)

Date Brightness Start Highest point End Pass type
(mag) Time Alt. Az. Time Alt. Az. Time Alt. Az.
27 Nov 11.4 15:29:48 10° SSE 15:33:48 13° SE 15:37:48 10° ESE visible
27 Nov 11.0 17:28:07 10° SSW 17:36:05 28° SSE 17:43:53 10° ESE visible
28 Nov 11.4 15:08:40 10° SSE 15:12:17 12° SE 15:15:52 10° ESE visible
28 Nov 10.9 17:06:36 10° SSW 17:14:31 27° SSE 17:22:15 10° E visible
29 Nov 11.3 14:47:38 10° SSE 14:50:46 12° SE 14:53:53 10° ESE visible
29 Nov 10.9 16:45:06 10° SSW 16:52:56 27° SSE 17:00:38 10° E visible
30 Nov 11.3 14:26:42 10° SE 14:29:15 11° SE 14:31:46 10° ESE visible
30 Nov 10.8 16:23:37 10° SSW 16:31:21 26° SSE 16:38:59 10° E visible
30 Nov 10.6 18:25:37 10° SW 18:34:21 35° S 18:42:54 10° ESE visible
01 Dec 11.3 14:06:02 10° SE 14:07:43 11° SE 14:09:25 10° ESE visible
01 Dec 10.8 16:02:06 10° SSW 16:09:47 25° SSE 16:17:20 10° E visible
01 Dec 10.5 18:04:01 10° SW 18:12:46 35° S 18:21:19 10° ESE visible
02 Dec 10.8 15:40:38 10° SSW 15:48:13 25° SSE 15:55:42 10° E visible
02 Dec 10.4 17:42:26 10° SW 17:51:10 35° S 17:59:43 10° ESE visible
03 Dec 10.7 15:19:10 10° SSW 15:26:38 24° SSE 15:34:02 10° E visible
03 Dec 10.4 17:20:50 10° SW 17:29:34 35° S 17:38:08 10° ESE visible
04 Dec 10.7 14:57:42 10° SSW 15:05:04 24° SSE 15:12:23 10° E visible
04 Dec 10.3 16:59:15 10° SW 17:07:58 35° S 17:16:33 10° ESE visible
05 Dec 10.7 14:37:26 13° S 14:43:30 23° SE 14:50:43 10° E visible
05 Dec 10.3 16:37:40 10° SW 16:46:22 34° S 16:54:57 10° ESE visible
06 Dec 10.7 14:17:26 16° S 14:21:56 22° SE 14:29:01 10° E visible
06 Dec 10.3 16:16:05 10° SW 16:24:46 34° SSE 16:33:21 10° ESE visible
06 Dec 10.4 18:19:21 10° WSW 18:27:59 34° SSW 18:36:26 10° SE visible
